Wind_Speed
6 5 5 5 6 7 7 7 7 7 7 7 7 7 8 8 7 7 8 8 8 7 6 5 5 5 5 4 4 4 4 5 5 4 4 4 4 3 3 3 2 3 2
6 5 4 4 5 6 6 6 6 6 6 6 6 7 7 8 8 7 7 7 7 7 6 6 5 5 4 3 3 4 4 4 4 4 4 4 3 3 3 3 2 3 3
6 6 5 5 6 6 5 5 5 6 6 6 5 6 6 6 6 6 6 6 6 6 6 5 5 4 4 3 3 3 3 3 3 3 4 3 3 4 4 3 3 3 4
7 7 6 5 5 5 5 4 5 5 5 5 4 5 5 5 5 5 5 5 5 5 5 5 4 4 3 3 3 2 3 3 2 3 3 2 3 4 4 3 2 3 4
7 7 7 5 5 4 4 3 4 4 4 4 3 3 3 4 5 5 5 4 5 5 4 4 3 3 3 2 2 1 2 2 2 2 2 2 2 3 3 2 2 2 3
5 6 6 5 4 4 3 2 2 3 3 3 3 3 2 2 4 4 4 3 4 4 3 3 3 3 3 2 1 1 1 1 2 2 2 2 2 2 2 2 3 3 2
4 4 4 4 4 3 2 1 1 2 3 2 2 2 2 2 2 2 2 2 2 3 3 2 2 2 2 2 2 1 1 1 2 2 2 2 2 2 2 2 2 3 2
3 3 3 3 3 2 1 1 0 1 2 2 2 1 1 1 2 2 1 1 1 2 2 2 2 2 2 2 2 1 1 1 1 2 3 3 3 2 2 2 1 2 2
2 2 2 2 3 2 2 1 0 1 2 2 2 1 1 1 1 2 2 2 1 2 2 2 2 3 3 3 3 2 1 1 2 2 2 3 3 2 2 2 1 2 2
3 2 2 2 3 3 2 2 1 2 2 2 2 2 2 2 2 2 2 3 3 3 3 4 4 3 3 3 3 3 3 2 2 2 2 2 2 2 2 2 3 3 3
4 4 4 3 4 4 3 3 3 2 2 2 3 3 3 3 3 3 3 3 3 4 4 5 5 4 4 3 4 4 3 3 2 2 2 2 2 2 2 2 3 3 3
5 4 5 5 6 6 5 5 4 3 3 3 3 4 4 4 4 3 4 4 4 5 5 6 5 5 4 4 5 4 4 3 3 3 3 2 2 2 2 2 3 3 4
5 5 6 6 7 7 7 7 5 5 4 4 4 4 5 5 5 4 4 4 4 5 6 6 6 6 5 5 5 5 5 4 3 3 3 3 3 3 3 3 4 4 4
6 6 6 7 8 8 8 7 6 6 5 5 6 6 6 6 6 5 5 6 6 6 7 7 7 6 5 5 5 5 6 6 5 5 5 4 4 4 3 4 4 5 5
6 6 7 8 8 9 8 7 8 7 6 6 6 6 6 7 6 6 7 7 7 7 7 7 7 6 6 7 6 6 7 7 7 7 6 5 5 5 5 5 5 6 5
7 7 7 9 9 9 9 8 8 7 7 7 7 6 7 7 7 7 7 7 7 7 8 8 8 8 8 7 7 7 7 8 8 8 7 6 6 6 6 6 7 6 6
8 8 9 9 10 10 9 9 8 7 7 7 6 6 6 6 6 7 7 7 7 7 8 7 7 8 9 8 8 8 8 8 8 8 8 8 8 7 8 8 7 7 7
9 9 9 9 9 9 9 9 8 8 8 7 6 6 6 6 7 7 7 8 9 8 8 7 7 9 9 9 9 9 9 9 9 9 9 10 9 8 8 9 8 8 8
9 9 9 9 9 9 9 8 8 8 8 7 7 7 7 7 7 7 8 8 8 8 9 8 7 8 8 9 9 9 8 8 9 9 10 10 10 9 9 9 9 9 9
10 10 10 10 9 9 9 9 8 8 8 7 7 7 7 7 7 8 8 8 8 8 9 9 7 7 8 8 8 8 8 9 10 10 10 10 10 10 10 9 10 10 11
10 10 10 11 10 10 10 9 9 8 8 7 8 8 8 8 8 9 10 10 10 10 9 8 8 8 8 8 8 9 9 9 11 11 10 10 10 10 11 11 11 11 11
11 11 12 12 11 10 10 10 9 8 8 8 8 9 9 9 9 10 11 12 12 10 10 9 9 9 9 9 9 10 10 10 11 11 11 11 12 12 12 12 12 13 13
11 12 12 13 12 11 11 11 10 10 9 9 9 9 9 9 9 10 12 12 11 10 10 10 10 10 10 10 11 11 11 11 11 13 13 13 13 13 13 14 15 15 14
13 13 13 13 13 13 12 12 11 11 10 10 10 11 11 11 11 11 12 13 12 12 11 11 12 11 10 11 12 13 14 14 14 14 14 14 14 14 15 14 15 15 15
13 14 13 13 14 14 13 13 11 11 11 11 11 12 12 12 13 12 12 12 13 12 12 12 13 13 13 13 13 14 16 16 16 16 16 16 15 15 15 16 15 15 16
14 14 14 14 15 15 15 14 13 13 13 13 13 13 13 13 14 14 14 14 14 14 14 14 14 14 14 14 15 15 16 17 17 17 18 18 17 17 17 17 18 17 17
Wind_Direction
83 83 88 104 112 119 123 121 121 121 123 120 117 117 118 119 118 118 120 129 129 127 125 127 124 110 99 94 98 102 98 90 85 84 81 81 76 74 82 83 72 66 65
73 74 96 102 113 119 120 120 125 125 125 124 120 120 123 124 120 119 122 131 134 127 121 118 118 115 108 100 84 88 98 93 89 85 83 78 68 64 67 70 70 61 58
69 70 90 107 118 112 115 125 128 135 134 130 126 124 124 126 129 126 127 130 136 131 124 121 119 118 112 95 84 80 81 85 93 86 82 76 66 65 65 72 69 57 50
71 69 78 99 110 110 112 120 127 138 143 140 133 130 128 128 130 125 120 132 137 133 130 127 127 120 113 94 81 70 77 81 83 71 71 69 66 63 62 71 64 54 48
71 70 72 88 100 103 105 104 116 136 144 143 134 131 132 135 133 128 125 132 140 140 139 139 142 134 124 109 96 84 87 84 58 50 37 43 56 52 64 57 53 49 50
69 66 69 76 86 97 95 92 104 133 143 145 127 115 109 121 137 133 141 139 143 147 148 145 147 140 134 136 132 119 94 57 47 37 14 9 352 33 50 57 51 43 46
63 56 59 66 73 78 88 80 97 157 163 170 146 143 137 140 137 129 130 147 163 160 160 160 166 165 157 162 152 131 104 64 42 38 15 5 357 14 20 48 49 39 32
58 48 40 46 64 57 38 39 73 205 211 203 190 184 208 171 148 164 156 142 167 181 193 203 208 217 206 192 184 165 112 53 17 9 16 16 19 18 13 11 21 30 13
39 34 32 37 31 17 2 354 319 248 235 237 231 217 216 213 215 213 217 213 231 247 252 262 244 229 224 211 213 230 235 273 317 339 7 12 20 26 20 16 2 356 350
15 4 7 10 2 350 337 340 322 271 256 254 256 250 244 242 249 262 258 252 251 252 265 274 267 252 244 239 241 247 248 256 296 337 346 351 8 27 25 2 350 333 323
3 356 348 340 329 326 323 327 324 305 283 259 276 272 265 257 261 274 274 270 270 269 274 278 271 270 272 264 255 250 249 255 290 315 317 333 343 347 343 335 344 347 338
6 355 347 340 338 336 330 324 321 316 315 296 286 278 287 286 281 288 278 277 288 289 286 285 282 281 275 265 259 251 248 264 274 290 298 315 308 311 309 312 330 336 336
4 353 355 351 346 343 340 335 334 329 326 313 296 288 288 289 282 288 295 290 294 293 292 287 283 275 267 260 258 259 261 268 271 282 289 289 297 295 289 300 322 324 328
3 359 355 356 353 349 344 349 346 335 328 323 304 287 284 285 282 292 301 302 293 290 292 292 286 279 275 268 266 262 264 268 272 281 288 287 293 289 283 291 312 317 316
0 360 356 355 353 351 347 349 344 333 333 334 313 295 297 294 292 288 283 287 288 291 292 284 281 277 275 272 270 263 265 266 268 280 278 284 291 283 279 283 296 306 310
352 354 352 349 349 347 348 345 344 342 331 327 327 318 309 308 308 303 291 287 285 287 288 283 280 273 267 270 271 269 265 267 269 275 275 280 281 285 280 282 291 295 296
355 354 352 349 345 344 344 344 342 343 343 332 328 323 320 312 309 304 300 304 304 295 293 291 288 278 274 274 274 275 267 265 269 274 279 280 279 287 290 289 294 294 290
352 352 350 350 348 345 344 346 346 347 345 338 334 330 326 318 311 307 305 304 302 298 298 292 288 288 278 272 274 276 273 267 269 271 278 281 279 284 286 287 289 290 287
349 346 344 345 345 346 344 344 345 343 342 341 338 332 328 323 316 312 308 306 303 301 300 297 291 289 282 279 278 278 275 272 274 274 273 274 277 278 284 284 283 287 286
351 345 340 339 339 342 344 340 341 341 339 335 331 327 323 319 312 309 310 308 310 308 305 302 298 297 292 285 286 286 282 279 282 280 279 276 275 278 282 280 281 285 287
345 344 340 336 332 332 335 337 337 339 338 334 327 323 320 321 319 318 315 311 308 305 304 304 296 292 288 285 284 283 282 281 282 284 284 281 278 278 278 278 284 286 290
344 345 342 342 337 333 331 330 332 335 334 333 335 333 330 331 328 325 325 320 313 309 305 302 293 288 287 289 290 284 278 279 281 283 283 282 281 281 283 285 287 287 289
337 339 338 337 337 334 334 333 333 333 331 333 334 335 330 327 324 323 325 324 316 308 307 304 300 292 288 289 293 289 283 285 283 284 283 282 282 284 284 287 289 287 287
333 334 335 336 336 334 333 331 333 334 333 330 330 331 329 326 323 322 324 323 317 313 309 303 300 295 291 292 291 291 289 289 288 287 281 279 279 282 284 285 289 287 284
331 333 332 331 331 330 328 327 327 326 327 327 328 330 329 329 327 322 319 319 319 316 311 306 304 300 293 292 290 288 288 289 289 288 285 281 279 279 281 283 286 287 283
326 329 330 327 325 325 323 321 320 320 321 322 323 325 326 326 326 322 320 319 315 310 308 308 305 302 297 294 291 287 286 288 290 288 285 282 280 280 281 283 284 283 283
Height
5886 5885 5885 5885 5886 5886 5886 5887 5887 5887 5888 5888 5888 5889 5889 5889 5890 5890 5891 5891 5892 5893 5893 5894 5895 5895 5896 5896 5896 5897 5897 5897 5898 5898 5899 5899 5899 5899 5899 5900 5900 5900 5900
5887 5886 5885 5886 5887 5887 5888 5888 5888 5889 5889 5890 5890 5890 5890 5891 5891 5892 5892 5893 5893 5894 5895 5895 5896 5896 5897 5897 5897 5898 5898 5898 5898 5899 5899 5899 5900 5900 5900 5900 5900 5900 5900
5888 5886 5884 5886 5888 5889 5889 5889 5890 5890 5890 5891 5891 5891 5892 5892 5892 5893 5893 5894 5895 5895 5896 5896 5897 5897 5898 5898 5899 5899 5899 5899 5899 5899 5900 5900 5900 5901 5900 5900 5901 5901 5901
5890 5888 5887 5888 5889 5890 5891 5891 5891 5891 5892 5892 5892 5892 5893 5893 5893 5894 5894 5895 5895 5896 5897 5897 5898 5898 5899 5899 5900 5900 5900 5900 5900 5900 5900 5900 5901 5901 5901 5901 5901 5901 5901
5892 5891 5890 5891 5892 5892 5892 5892 5892 5892 5893 5893 5893 5893 5893 5894 5894 5895 5895 5896 5896 5897 5897 5898 5898 5899 5899 5900 5900 5900 5901 5901 5900 5900 5901 5901 5901 5901 5901 5901 5901 5902 5902
5894 5893 5893 5893 5893 5893 5893 5893 5894 5893 5894 5894 5894 5894 5895 5895 5895 5895 5896 5896 5897 5897 5898 5898 5899 5899 5900 5900 5900 5901 5901 5901 5901 5901 5901 5901 5901 5901 5901 5902 5902 5902 5902
5896 5895 5895 5895 5895 5895 5895 5895 5895 5895 5895 5895 5895 5895 5895 5896 5896 5896 5896 5897 5897 5898 5898 5898 5899 5899 5900 5900 5900 5901 5901 5901 5901 5901 5901 5901 5901 5901 5902 5902 5902 5902 5902
5897 5896 5896 5896 5896 5896 5896 5896 5895 5896 5896 5896 5896 5896 5896 5896 5897 5897 5897 5897 5897 5898 5898 5898 5899 5899 5900 5900 5900 5901 5901 5901 5901 5901 5901 5901 5901 5901 5902 5902 5902 5902 5902
5898 5898 5897 5897 5897 5897 5896 5896 5896 5896 5896 5896 5896 5897 5897 5897 5897 5897 5897 5897 5897 5898 5898 5898 5899 5899 5899 5900 5900 5900 5901 5901 5901 5901 5901 5901 5901 5901 5901 5902 5902 5902 5902
5899 5899 5899 5898 5898 5897 5897 5897 5897 5897 5897 5897 5897 5897 5897 5897 5897 5897 5897 5897 5897 5898 5898 5898 5898 5898 5899 5899 5900 5900 5901 5901 5901 5901 5901 5901 5901 5901 5901 5902 5902 5902 5902
5900 5900 5899 5899 5899 5898 5898 5897 5897 5897 5897 5897 5897 5897 5897 5897 5897 5897 5897 5897 5897 5898 5897 5898 5898 5898 5898 5898 5899 5899 5900 5900 5901 5901 5901 5901 5901 5901 5901 5902 5902 5902 5902
5901 5901 5900 5900 5899 5899 5899 5898 5897 5897 5897 5897 5897 5897 5897 5897 5897 5897 5897 5897 5897 5897 5897 5897 5897 5897 5897 5898 5898 5899 5899 5900 5900 5900 5900 5900 5901 5901 5901 5901 5901 5901 5901
5902 5902 5901 5901 5900 5899 5899 5898 5898 5897 5897 5897 5897 5897 5897 5897 5897 5897 5897 5897 5896 5896 5896 5896 5896 5896 5897 5897 5897 5898 5898 5899 5900 5899 5899 5900 5900 5900 5900 5901 5900 5900 5900
5903 5903 5902 5901 5901 5900 5899 5899 5898 5897 5897 5897 5897 5896 5896 5896 5897 5897 5896 5896 5896 5895 5895 5895 5895 5895 5896 5896 5897 5897 5898 5898 5899 5899 5899 5899 5899 5899 5900 5900 5899 5899 5899
5903 5903 5902 5902 5901 5900 5899 5899 5898 5898 5897 5897 5896 5896 5896 5896 5896 5896 5896 5895 5895 5895 5894 5894 5894 5894 5895 5895 5896 5896 5897 5897 5897 5898 5897 5898 5898 5898 5898 5899 5898 5899 5899
5905 5904 5903 5903 5902 5901 5900 5899 5898 5897 5897 5896 5896 5895 5895 5895 5895 5895 5894 5894 5894 5893 5893 5893 5893 5893 5893 5894 5895 5895 5895 5896 5896 5896 5897 5897 5897 5897 5897 5897 5897 5897 5897
5906 5905 5904 5903 5902 5901 5900 5899 5898 5897 5896 5896 5895 5895 5894 5894 5894 5894 5893 5893 5892 5892 5892 5891 5891 5891 5892 5892 5893 5893 5894 5894 5894 5895 5895 5896 5896 5896 5896 5896 5896 5896 5895
5906 5905 5904 5903 5902 5901 5900 5899 5898 5897 5896 5895 5895 5894 5894 5893 5893 5892 5892 5892 5891 5891 5890 5890 5890 5890 5890 5891 5891 5891 5892 5892 5893 5893 5894 5894 5894 5894 5894 5894 5894 5894 5894
5907 5906 5904 5903 5902 5901 5900 5899 5898 5897 5896 5895 5894 5894 5893 5892 5892 5891 5891 5891 5890 5889 5889 5889 5889 5889 5889 5889 5889 5889 5890 5890 5891 5891 5891 5891 5891 5891 5891 5891 5892 5891 5891
5907 5906 5905 5903 5902 5901 5900 5899 5898 5897 5896 5895 5894 5893 5892 5891 5891 5890 5890 5889 5889 5888 5888 5887 5887 5887 5887 5887 5887 5888 5888 5888 5888 5889 5889 5889 5889 5889 5889 5889 5889 5889 5889
5907 5906 5904 5903 5902 5901 5900 5899 5898 5897 5896 5895 5894 5893 5891 5890 5890 5889 5888 5888 5887 5886 5886 5885 5885 5886 5886 5886 5886 5886 5886 5885 5886 5886 5886 5886 5886 5886 5886 5886 5886 5886 5886
5907 5906 5904 5903 5901 5900 5899 5898 5897 5897 5895 5894 5893 5892 5891 5890 5889 5888 5887 5886 5884 5884 5883 5883 5883 5884 5884 5884 5884 5884 5884 5884 5883 5883 5883 5883 5883 5883 5883 5883 5883 5883 5883
5907 5905 5904 5902 5901 5900 5899 5897 5897 5896 5895 5894 5893 5892 5891 5889 5888 5887 5885 5884 5883 5882 5881 5881 5881 5881 5881 5881 5881 5881 5881 5880 5881 5881 5881 5881 5880 5880 5879 5879 5879 5879 5879
5906 5905 5903 5902 5900 5899 5898 5897 5896 5895 5894 5893 5892 5891 5890 5888 5887 5886 5884 5883 5881 5880 5880 5879 5879 5878 5879 5879 5878 5878 5878 5878 5878 5878 5877 5877 5877 5876 5876 5875 5875 5875 5874
5905 5904 5902 5901 5900 5899 5897 5896 5895 5894 5893 5892 5891 5890 5888 5887 5886 5884 5883 5881 5880 5878 5877 5877 5876 5876 5876 5876 5875 5875 5875 5875 5874 5874 5873 5873 5873 5873 5872 5872 5871 5871 5870
5904 5902 5901 5900 5899 5897 5896 5895 5894 5893 5892 5891 5890 5889 5887 5886 5884 5883 5881 5880 5878 5877 5876 5875 5874 5873 5873 5872 5872 5871 5871 5871 5871 5870 5870 5869 5869 5869 5868 5868 5867 5867 5866